Overview Statistics Trail Chart Weather Telemetry Raw packets
 

This is the latest recevied weather packets stored in our database for station/object N0QV. If no packets are shown the sender has not sent any weather packets the latest 10 day(s).

<< 78 79 80 81 82 83 84 >>
Time Temp. Humidity Pressure Rain* Wind** Luminosity Snow
1788107009 27.22° C 76% 1009.2 hPa 0 mm - 314 W/m² -
1788106708 27.22° C 76% 1009 hPa 0 mm - 251 W/m² -
1788106407 27.22° C 76% 1009.3 hPa 0 mm - 207 W/m² -
1788106103 27.22° C 76% 1009.1 hPa 0 mm - 196 W/m² -
1788105800 27.22° C 74% 1009 hPa 0 mm - 201 W/m² -
1788105494 27.22° C 73% 1008.9 hPa 0 mm - 260 W/m² -
1788105191 27.22° C 74% 1009 hPa 0 mm - 325 W/m² -
1788104885 28.33° C 73% 1009 hPa 0 mm - 265 W/m² -
1788104581 28.33° C 70% 1008.8 hPa 0 mm - 288 W/m² -
1788104277 27.78° C 72% 1008.9 hPa 0 mm - 430 W/m² -
1788103973 27.78° C 72% 1008.8 hPa 0 mm - 478 W/m² -
1788103682 27.78° C 72% 1008.9 hPa 0 mm - 445 W/m² -
1788103366 27.78° C 72% 1008.4 hPa 0 mm - 456 W/m² -
1788103065 27.22° C 72% 1008.4 hPa 0 mm - 448 W/m² -
1788102764 27.22° C 74% 1008.5 hPa 0 mm - 444 W/m² -
1788102460 26.67° C 75% 1008.6 hPa 0 mm - 437 W/m² -
1788102160 26.67° C 74% 1008.5 hPa 0 mm - 405 W/m² -
1788101860 26.67° C 74% 1008.7 hPa 0 mm - 386 W/m² -
1788101555 26.67° C 75% 1008.5 hPa 0 mm - 401 W/m² -
1788101250 26.67° C 76% 1008.6 hPa 0 mm - 425 W/m² -
1788100946 25.56° C 77% 1008.5 hPa 0 mm - 302 W/m² -
1788100642 25.56° C 78% 1008.5 hPa 0 mm - 280 W/m² -
1788100340 25° C 79% 1008.7 hPa 0 mm - 353 W/m² -
1788100036 25° C 80% 1008.7 hPa 0 mm - 234 W/m² -
1788099730 25° C 80% 1008.5 hPa 0 mm - 184 W/m² -

* Rain latest hour (hover to see other rain measurements)
** Current wind speed in m/s (hover to see current wind gust speed)